This demonstration page uses our WeatherBlox Daily Observations layout. Learn more.

Left ArrowRight Arrow

34.02893, -84.19858

Hourly Observations for July 17, 2018

Temp ( °F °C ) Dew Point ( °F °C ) Humidity (%) Winds ( mph kmh ) Pressure ( in mb ) Visibility ( mi km ) Precip ( " mm )
12:53 am 00:53 Mostly Clear 73 22.8 72 22.2 96 96 Calm 29.99 1016 10 16 0.00 0.03
1:51 am 01:51 Partly Cloudy 73 23 72 22 94 94 Calm 30.00 1016 8 13 0.00 0.00
1:53 am 01:53 Partly Cloudy 73 22.8 72 22.2 96 96 Calm 29.98 1015 8 13 0.00 0.00
2:02 am 02:02 Mostly Cloudy 73 22.8 72 22.2 96 96 Calm 30.00 1016 7 11 0.00 0.00
2:53 am 02:53 Mostly Cloudy 73 22.8 72 22.2 96 96 Calm 29.97 1015 9 14 0.00 0.00
2:58 am 02:58 Partly Cloudy 73 22.8 72 22.2 96 96 SSE 3 6 30.00 1016 9 14 0.00 0.00
3:36 am 03:36 Mostly Cloudy 73 22.8 72 22.2 96 96 Calm 30.00 1016 10 16 0.00 0.00
3:53 am 03:53 Cloudy 73 22.8 72 22.2 96 96 Calm 29.97 1015 10 16 0.00 0.00
4:36 am 04:36 Partly Cloudy 73 22.8 72 22.2 96 96 Calm 29.97 1015 10 16 0.00 0.00
4:53 am 04:53 Clear 72 22.2 72 22.2 100 100 Calm 29.96 1015 9 14 0.00 0.00
5:03 am 05:03 Mostly Clear 72 22.2 71 21.7 97 97 SW 5 7 30.00 1016 8 13 0.00 0.00
5:37 am 05:37 Mostly Cloudy with Mist and Fog 72 22.2 72 22.2 100 100 Calm 30.00 1016 6 10 0.00 0.00
5:53 am 05:53 Cloudy 72 22.2 72 22.2 100 100 S 5 7 29.98 1015 7 11 0.00 0.00
6:53 am 06:53 Cloudy with Mist and Fog 73 22.8 72 22.2 96 96 SW 6 9 30.00 1016 4 6 0.00 0.00
7:27 am 07:27 Mostly Cloudy with Mist and Fog 73 22.8 72 22.2 96 96 SSW 3 6 30.03 1017 4 6 0.00 0.00
7:53 am 07:53 Mostly Cloudy with Mist and Fog 74 23.3 72 22.2 94 94 Calm 30.01 1016 4 6 0.00 0.00
8:23 am 08:23 Partly Cloudy 75 23.9 72 22.2 90 90 Calm 30.03 1017 7 11 0.00 0.00
8:53 am 08:53 Sunny 76 24.4 73 22.8 91 91 W 5 7 30.02 1017 9 14 0.00 0.00
9:02 am 09:02 Mostly Sunny 77 25 73 22.8 88 88 WSW 6 9 30.00 1016 9 14 0.00 0.00
9:53 am 09:53 Partly Cloudy 79 26.1 74 23.3 85 85 W 5 7 30.01 1016 10 16 0.00 0.00
9:58 am 09:58 Mostly Cloudy 79 26.1 74 23.3 85 85 W 3 6 30.00 1016 10 16 0.00 0.00
10:53 am 10:53 Mostly Cloudy 80 26.7 73 22.8 79 79 VRB 6 9 30.01 1016 10 16 0.00 0.00
11:00 am 11:00 Partly Cloudy 81 27.2 73 22.8 77 77 VRB 3 6 30.00 1016 10 16 0.00 0.00
11:19 am 11:19 Mostly Cloudy 81 27.2 74 23.3 79 79 VRB 6 9 30.00 1016 10 16 0.00 0.00
11:32 am 11:32 Partly Cloudy 82 27.8 73 22.8 74 74 W 6 9 30.00 1016 10 16 0.00 0.00
11:53 am 11:53 Partly Cloudy 83 28.3 72 22.2 70 70 Calm 29.99 1016 10 16 0.00 0.00
12:03 pm 12:03 Mostly Cloudy 83 28.3 74 23.3 74 74 W 6 9 30.00 1016 10 16 0.00 0.00
12:16 pm 12:16 Mostly Sunny 85 29.4 72 22.2 65 65 VRB 5 7 29.97 1015 10 16 0.00 0.00
12:53 pm 12:53 Mostly Sunny 86 30 73 22.8 65 65 WNW 6 9 29.98 1015 10 16 0.00 0.00
1:53 pm 13:53 Mostly Sunny 87 30.6 73 22.8 63 63 NW 7 11 29.96 1015 10 16 0.00 0.00
2:53 pm 14:53 Sunny 88 31.1 71 21.7 57 57 SW 7 11 29.93 1014 10 16 0.00 0.00
3:53 pm 15:53 Mostly Sunny 90 32.2 70 21.1 52 52 W 8 13 29.91 1013 10 16 0.00 0.00
4:53 pm 16:53 Mostly Sunny 90 32.2 68 20 48 48 WSW 7 11 29.90 1012 10 16 0.00 0.00
5:53 pm 17:53 Mostly Sunny 90 32.2 68 20 48 48 W 9 15 29.89 1012 10 16 0.00 0.00
6:53 pm 18:53 Partly Cloudy 88 31.1 69 20.6 54 54 NW 8 13 29.89 1012 10 16 0.00 0.00
7:53 pm 19:53 Sunny 84 28.9 72 22.2 67 67 NW 6 9 29.92 1013 10 16 0.00 0.00
8:53 pm 20:53 Clear 82 27.8 72 22.2 72 72 W 5 7 29.93 1014 10 16 0.00 0.00
9:53 pm 21:53 Clear 81 27.2 71 21.7 72 72 W 5 7 29.93 1014 10 16 0.00 0.00
10:53 pm 22:53 Clear 80 26.7 71 21.7 74 74 WNW 5 7 29.94 1014 10 16 0.00 0.00
11:53 pm 23:53 Clear 79 26.1 71 21.7 77 77 W 5 7 29.94 1014 10 16 0.00 0.00

Powered by AerisWeather